| time (UTC) | temp C | wind direction | speed KPH | gust KPH | rain 1hr cm | rain 24hr cm | rain mn cm | humidity % | barometer mb |
| 20260508013556 | 8 | 293 | 11.3 | 24.1 | 0.00 | 0.18 | 0.13 | 79 | 1010.9 |
| 20260508013053 | 8 | 337 | 9.7 | 24.1 | 0.00 | 0.18 | 0.13 | 79 | 1010.8 |
| 20260508012555 | 8 | 318 | 9.7 | 19.3 | 0.00 | 0.18 | 0.13 | 79 | 1010.8 |
| 20260508012051 | 8 | 352 | 6.4 | 20.9 | 0.00 | 0.18 | 0.13 | 78 | 1010.7 |
| 20260508011551 | 8 | 311 | 6.4 | 20.9 | 0.00 | 0.18 | 0.13 | 78 | 1010.8 |
| 20260508011053 | 8 | 338 | 8.0 | 17.7 | 0.00 | 0.18 | 0.13 | 78 | 1010.8 |
| 20260508010549 | 8 | 347 | 4.8 | 14.5 | 0.00 | 0.18 | 0.13 | 78 | 1010.6 |
| 20260508010050 | 8 | 304 | 3.2 | 17.7 | 0.00 | 0.18 | 0.13 | 77 | 1010.6 |
| 20260508005547 | 8 | 9 | 8.0 | 17.7 | 0.00 | 0.18 | 0.13 | 77 | 1010.6 |
| 20260508005052 | 8 | 356 | 6.4 | 14.5 | 0.00 | 0.18 | 0.13 | 77 | 1010.4 |
| 20260508004547 | 8 | 323 | 6.4 | 16.1 | 0.00 | 0.18 | 0.13 | 77 | 1010.4 |
| 20260508004046 | 8 | 283 | 6.4 | 17.7 | 0.00 | 0.18 | 0.13 | 77 | 1010.3 |
| 20260508003546 | 8 | 323 | 3.2 | 17.7 | 0.00 | 0.18 | 0.13 | 76 | 1010.2 |
| 20260508003045 | 9 | 127 | 4.8 | 24.1 | 0.00 | 0.18 | 0.13 | 76 | 1010.2 |
| 20260508002544 | 9 | 336 | 9.7 | 24.1 | 0.00 | 0.18 | 0.13 | 75 | 1010.1 |
| 20260508002044 | 9 | 105 | 8.0 | 24.1 | 0.00 | 0.18 | 0.13 | 75 | 1010.1 |
| 20260508001543 | 9 | 332 | 9.7 | 24.1 | 0.00 | 0.18 | 0.13 | 75 | 1010.2 |
| 20260508001043 | 9 | 304 | 6.4 | 20.9 | 0.00 | 0.18 | 0.13 | 76 | 1010.1 |
| 20260508000544 | 9 | 276 | 6.4 | 20.9 | 0.00 | 0.18 | 0.13 | 76 | 1010.1 |
| 20260508000045 | 9 | 315 | 9.7 | 35.4 | 0.00 | 0.18 | 0.13 | 77 | 1010.1 |
| 20260507235542 | 9 | 325 | 14.5 | 35.4 | 0.00 | 0.18 | 0.13 | 76 | 1010.0 |
| 20260507235045 | 10 | 270 | 12.9 | 32.2 | 0.00 | 0.18 | 0.13 | 75 | 1009.9 |
| 20260507234539 | 10 | 345 | 11.3 | 24.1 | 0.00 | 0.18 | 0.13 | 75 | 1009.9 |
| 20260507234038 | 10 | 354 | 9.7 | 19.3 | 0.00 | 0.18 | 0.13 | 74 | 1009.9 |
| 20260507233542 | 10 | 291 | 9.7 | 19.3 | 0.00 | 0.18 | 0.13 | 74 | 1009.9 |
| 20260507233042 | 10 | 290 | 8.0 | 19.3 | 0.00 | 0.18 | 0.13 | 74 | 1010.0 |
| 20260507232536 | 10 | 84 | 6.4 | 22.5 | 0.00 | 0.18 | 0.13 | 74 | 1010.0 |
| 20260507232037 | 10 | 294 | 6.4 | 24.1 | 0.00 | 0.18 | 0.13 | 75 | 1010.0 |
| 20260507231537 | 10 | 272 | 11.3 | 25.7 | 0.00 | 0.18 | 0.13 | 74 | 1010.0 |
| 20260507231034 | 10 | 262 | 9.7 | 25.7 | 0.00 | 0.18 | 0.13 | 75 | 1010.0 |
| 20260507230532 | 10 | 327 | 11.3 | 24.1 | 0.00 | 0.18 | 0.13 | 75 | 1010.0 |
| 20260507230031 | 10 | 284 | 8.0 | 24.1 | 0.00 | 0.18 | 0.13 | 74 | 1010.0 |
| 20260507225532 | 10 | 271 | 8.0 | 30.6 | 0.00 | 0.18 | 0.13 | 75 | 1010.0 |
| 20260507225032 | 10 | 292 | 9.7 | 30.6 | 0.00 | 0.18 | 0.13 | 75 | 1010.1 |
| 20260507224539 | 10 | 4 | 16.1 | 30.6 | 0.00 | 0.18 | 0.13 | 75 | 1009.6 |
| 20260507224030 | 11 | 302 | 11.3 | 29.0 | 0.00 | 0.18 | 0.13 | 75 | 1009.4 |
| 20260507223530 | 11 | 165 | 8.0 | 33.8 | 0.00 | 0.18 | 0.13 | 77 | 1009.5 |
| 20260507223033 | 10 | 326 | 11.3 | 33.8 | 0.00 | 0.18 | 0.13 | 77 | 1009.5 |
| 20260507222531 | 10 | 345 | 12.9 | 33.8 | 0.00 | 0.18 | 0.13 | 77 | 1009.3 |
| 20260507222030 | 11 | 34 | 14.5 | 29.0 | 0.00 | 0.18 | 0.13 | 76 | 1009.2 |
| 20260507221535 | 11 | 259 | 9.7 | 25.7 | 0.00 | 0.18 | 0.13 | 74 | 1009.1 |
| 20260507221028 | 11 | 12 | 4.8 | 19.3 | 0.00 | 0.18 | 0.13 | 75 | 1009.1 |
| 20260507220528 | 11 | 349 | 4.8 | 24.1 | 0.00 | 0.18 | 0.13 | 76 | 1009.0 |
| 20260507220029 | 11 | 318 | 11.3 | 24.1 | 0.00 | 0.18 | 0.13 | 76 | 1008.9 |
| 20260507215528 | 11 | 55 | 4.8 | 16.1 | 0.00 | 0.18 | 0.13 | 79 | 1008.8 |
| 20260507215027 | 11 | 345 | 9.7 | 24.1 | 0.00 | 0.18 | 0.13 | 82 | 1008.8 |
| 20260507214527 | 10 | 141 | 9.7 | 29.0 | 0.00 | 0.18 | 0.13 | 84 | 1008.8 |
| 20260507214026 | 11 | 316 | 14.5 | 29.0 | 0.00 | 0.18 | 0.13 | 83 | 1008.8 |
| 20260507213525 | 11 | 291 | 9.7 | 19.3 | 0.00 | 0.18 | 0.13 | 82 | 1008.7 |
| 20260507213024 | 11 | 34 | 4.8 | 29.0 | 0.00 | 0.18 | 0.13 | 83 | 1008.6 |
| 20260507212522 | 11 | 269 | 14.5 | 35.4 | 0.00 | 0.18 | 0.13 | 81 | 1008.4 |
| 20260507212021 | 12 | 323 | 12.9 | 35.4 | 0.00 | 0.18 | 0.13 | 79 | 1008.4 |
| 20260507211523 | 13 | 321 | 14.5 | 32.2 | 0.00 | 0.18 | 0.13 | 75 | 1008.2 |
| 20260507211018 | 14 | 297 | 6.4 | 17.7 | 0.00 | 0.18 | 0.13 | 72 | 1008.2 |
| 20260507210518 | 13 | 238 | 3.2 | 22.5 | 0.00 | 0.18 | 0.13 | 75 | 1008.0 |
| 20260507210018 | 13 | 231 | 9.7 | 25.7 | 0.00 | 0.18 | 0.13 | 74 | 1007.8 |
| 20260507205517 | 13 | 231 | 6.4 | 25.7 | 0.00 | 0.18 | 0.13 | 73 | 1007.6 |
| 20260507205016 | 14 | 333 | 14.5 | 32.2 | 0.00 | 0.18 | 0.13 | 72 | 1007.6 |
| 20260507204516 | 14 | 334 | 9.7 | 32.2 | 0.00 | 0.18 | 0.13 | 72 | 1007.6 |
| 20260507204015 | 15 | 342 | 9.7 | 24.1 | 0.00 | 0.18 | 0.13 | 70 | 1007.5 |
| 20260507203518 | 15 | 252 | 11.3 | 25.7 | 0.00 | 0.18 | 0.13 | 68 | 1007.6 |
| 20260507203015 | 15 | 257 | 8.0 | 25.7 | 0.00 | 0.18 | 0.13 | 68 | 1007.5 |
| 20260507202514 | 16 | 83 | 6.4 | 20.9 | 0.00 | 0.18 | 0.13 | 68 | 1007.3 |
| 20260507202016 | 15 | 234 | 3.2 | 24.1 | 0.00 | 0.18 | 0.13 | 69 | 1007.1 |
| 20260507201514 | 15 | 269 | 4.8 | 24.1 | 0.00 | 0.18 | 0.13 | 71 | 1007.2 |
| 20260507201014 | 15 | 292 | 8.0 | 19.3 | 0.00 | 0.18 | 0.13 | 70 | 1007.1 |
| 20260507200513 | 15 | 325 | 4.8 | 22.5 | 0.00 | 0.18 | 0.13 | 71 | 1007.1 |
| 20260507200013 | 16 | 23 | 4.8 | 22.5 | 0.00 | 0.18 | 0.13 | 71 | 1007.0 |
| 20260507195516 | 16 | 210 | 9.7 | 20.9 | 0.00 | 0.18 | 0.13 | 69 | 1007.2 |
| 20260507195015 | 16 | 271 | 8.0 | 24.1 | 0.00 | 0.18 | 0.13 | 70 | 1007.2 |
| 20260507194515 | 16 | 321 | 8.0 | 32.2 | 0.00 | 0.18 | 0.13 | 71 | 1007.3 |
| 20260507194012 | 15 | 247 | 6.4 | 32.2 | 0.00 | 0.18 | 0.13 | 73 | 1007.3 |
| 20260507193511 | 16 | 328 | 9.7 | 32.2 | 0.00 | 0.18 | 0.13 | 71 | 1007.2 |
| 20260507193010 | 16 | 337 | 11.3 | 32.2 | 0.00 | 0.18 | 0.13 | 68 | 1007.3 |
| 20260507192510 | 17 | 189 | 8.0 | 24.1 | 0.00 | 0.18 | 0.13 | 67 | 1007.3 |
| 20260507192010 | 17 | 139 | 8.0 | 22.5 | 0.00 | 0.18 | 0.13 | 66 | 1007.3 |
| 20260507191510 | 17 | 293 | 8.0 | 22.5 | 0.00 | 0.18 | 0.13 | 65 | 1007.4 |
| 20260507191009 | 17 | 194 | 6.4 | 19.3 | 0.00 | 0.18 | 0.13 | 64 | 1007.4 |
| 20260507190510 | 18 | 125 | 8.0 | 33.8 | 0.00 | 0.18 | 0.13 | 65 | 1007.5 |
| 20260507190010 | 17 | 118 | 4.8 | 33.8 | 0.00 | 0.18 | 0.13 | 66 | 1007.6 |
| 20260507185509 | 18 | 321 | 6.4 | 17.7 | 0.00 | 0.18 | 0.13 | 62 | 1007.6 |
| 20260507185009 | 19 | 258 | 8.0 | 17.7 | 0.00 | 0.18 | 0.13 | 62 | 1007.6 |
| 20260507184508 | 19 | 288 | 3.2 | 14.5 | 0.00 | 0.18 | 0.13 | 64 | 1007.7 |
| 20260507184008 | 18 | 221 | 4.8 | 14.5 | 0.00 | 0.18 | 0.13 | 64 | 1007.7 |
| 20260507183509 | 18 | 204 | 3.2 | 25.7 | 0.00 | 0.18 | 0.13 | 66 | 1007.6 |
| 20260507183011 | 17 | 141 | 9.7 | 25.7 | 0.00 | 0.18 | 0.13 | 68 | 1007.7 |
| 20260507182507 | 18 | 328 | 4.8 | 25.7 | 0.00 | 0.18 | 0.13 | 66 | 1007.7 |
| 20260507182007 | 18 | 206 | 9.7 | 25.7 | 0.00 | 0.18 | 0.13 | 65 | 1007.7 |
| 20260507181506 | 18 | 39 | 3.2 | 16.1 | 0.00 | 0.18 | 0.13 | 69 | 1007.7 |
| 20260507181009 | 18 | 40 | 8.0 | 20.9 | 0.00 | 0.18 | 0.13 | 67 | 1007.7 |
| 20260507180506 | 18 | 157 | 8.0 | 24.1 | 0.00 | 0.18 | 0.13 | 68 | 1007.5 |
| 20260507180009 | 18 | 290 | 11.3 | 24.1 | 0.00 | 0.18 | 0.13 | 67 | 1007.3 |
| 20260507175505 | 19 | 338 | 9.7 | 20.9 | 0.00 | 0.18 | 0.13 | 65 | 1007.3 |
| 20260507175005 | 19 | 328 | 6.4 | 20.9 | 0.00 | 0.18 | 0.13 | 62 | 1007.2 |
| 20260507174505 | 20 | 46 | 6.4 | 19.3 | 0.00 | 0.18 | 0.13 | 61 | 1007.3 |
| 20260507174004 | 20 | 18 | 6.4 | 19.3 | 0.00 | 0.18 | 0.13 | 61 | 1007.5 |
| 20260507173505 | 20 | 282 | 6.4 | 16.1 | 0.00 | 0.18 | 0.13 | 60 | 1007.5 |
| 20260507173010 | 20 | 101 | 3.2 | 17.7 | 0.00 | 0.18 | 0.13 | 62 | 1007.5 |
| 20260507172503 | 20 | 153 | 4.8 | 19.3 | 0.00 | 0.18 | 0.13 | 62 | 1007.2 |
| 20260507172003 | 20 | 349 | 6.4 | 19.3 | 0.00 | 0.18 | 0.13 | 61 | 1007.2 |
| 20260507171508 | 20 | 293 | 3.2 | 9.7 | 0.00 | 0.18 | 0.13 | 62 | 1007.3 |
| 20260507171003 | 20 | 278 | 3.2 | 22.5 | 0.00 | 0.18 | 0.13 | 63 | 1007.2 |
| 20260507170503 | 20 | 217 | 9.7 | 22.5 | 0.00 | 0.18 | 0.13 | 62 | 1007.3 |
| 20260507170003 | 20 | 327 | 6.4 | 17.7 | 0.00 | 0.18 | 0.13 | 61 | 1007.4 |
| 20260507165501 | 20 | 156 | 3.2 | 12.9 | 0.00 | 0.18 | 0.13 | 62 | 1007.3 |
| 20260507165001 | 19 | 243 | 3.2 | 12.9 | 0.00 | 0.18 | 0.13 | 63 | 1007.3 |
| 20260507164607 | 19 | 321 | 4.8 | 12.9 | 0.00 | 0.18 | 0.13 | 62 | 1007.5 |
| 20260507164100 | 19 | 144 | 4.8 | 12.9 | 0.00 | 0.18 | 0.13 | 64 | 1007.6 |
| 20260507163600 | 18 | 311 | 4.8 | 16.1 | 0.00 | 0.18 | 0.13 | 68 | 1007.6 |
| 20260507163059 | 19 | 326 | 6.4 | 16.1 | 0.00 | 0.18 | 0.13 | 67 | 1007.7 |
| 20260507162659 | 18 | 226 | 3.2 | 12.9 | 0.00 | 0.18 | 0.13 | 69 | 1007.6 |
| 20260507162057 | 18 | 248 | 1.6 | 11.3 | 0.00 | 0.18 | 0.13 | 69 | 1007.7 |
| 20260507161601 | 19 | 217 | 1.6 | 11.3 | 0.00 | 0.18 | 0.13 | 70 | 1007.6 |
| 20260507161058 | 18 | 230 | 3.2 | 8.0 | 0.00 | 0.18 | 0.13 | 70 | 1007.7 |
| 20260507160558 | 18 | 300 | 0.0 | 11.3 | 0.00 | 0.18 | 0.13 | 73 | 1007.8 |
| 20260507160059 | 18 | 267 | 1.6 | 11.3 | 0.00 | 0.18 | 0.13 | 71 | 1007.6 |
| 20260507155557 | 18 | 327 | 4.8 | 12.9 | 0.00 | 0.18 | 0.13 | 69 | 1007.6 |
| 20260507155106 | 20 | 347 | 6.4 | 12.9 | 0.00 | 0.18 | 0.13 | 66 | 1007.5 |
| 20260507154600 | 20 | 27 | 1.6 | 9.7 | 0.00 | 0.18 | 0.13 | 69 | 1007.5 |
| 20260507154057 | 20 | 208 | 1.6 | 11.3 | 0.00 | 0.18 | 0.13 | 69 | 1007.5 |
| 20260507153554 | 18 | 213 | 3.2 | 11.3 | 0.00 | 0.18 | 0.13 | 73 | 1007.6 |
| 20260507153056 | 18 | 157 | 0.0 | 8.0 | 0.00 | 0.18 | 0.13 | 81 | 1007.6 |
| 20260507152558 | 17 | 297 | 3.2 | 8.0 | 0.00 | 0.18 | 0.13 | 80 | 1007.8 |
| 20260507152054 | 17 | 349 | 1.6 | 6.4 | 0.00 | 0.18 | 0.13 | 78 | 1007.7 |
| 20260507151553 | 18 | 15 | 1.6 | 9.7 | 0.00 | 0.18 | 0.13 | 77 | 1007.7 |
| 20260507151053 | 18 | 224 | 3.2 | 16.1 | 0.00 | 0.18 | 0.13 | 76 | 1007.6 |
| 20260507150554 | 18 | 231 | 4.8 | 16.1 | 0.00 | 0.18 | 0.13 | 75 | 1007.6 |
| 20260507150053 | 19 | 179 | 1.6 | 6.4 | 0.00 | 0.18 | 0.13 | 72 | 1007.6 |
| 20260507145551 | 18 | 158 | 3.2 | 6.4 | 0.00 | 0.18 | 0.13 | 75 | 1007.6 |
| 20260507145050 | 18 | 248 | 0.0 | 6.4 | 0.00 | 0.18 | 0.13 | 78 | 1007.8 |
| 20260507144549 | 18 | 224 | 0.0 | 8.0 | 0.00 | 0.18 | 0.13 | 81 | 1007.9 |
| 20260507144048 | 17 | 168 | 1.6 | 9.7 | 0.00 | 0.18 | 0.13 | 81 | 1008.0 |
| 20260507143550 | 17 | 204 | 3.2 | 9.7 | 0.00 | 0.18 | 0.13 | 79 | 1007.9 |
| 20260507143052 | 18 | 240 | 0.0 | 4.8 | 0.00 | 0.18 | 0.13 | 82 | 1007.9 |
| 20260507142546 | 17 | 235 | 0.0 | 1.6 | 0.00 | 0.18 | 0.13 | 87 | 1008.1 |
| 20260507142044 | 17 | 235 | 0.0 | 3.2 | 0.00 | 0.18 | 0.13 | 87 | 1008.2 |
| 20260507141551 | 17 | 205 | 0.0 | 1.6 | 0.00 | 0.18 | 0.13 | 88 | 1008.1 |
| 20260507141044 | 17 | 205 | 0.0 | 1.6 | 0.00 | 0.18 | 0.13 | 88 | 1008.4 |
| 20260507140545 | 17 | 205 | 0.0 | 0.0 | 0.00 | 0.18 | 0.13 | 89 | 1008.2 |
| 20260507140044 | 16 | 205 | 0.0 | 3.2 | 0.00 | 0.18 | 0.13 | 89 | 1008.3 |
| 20260507135544 | 16 | 205 | 0.0 | 3.2 | 0.00 | 0.18 | 0.13 | 89 | 1008.1 |
| 20260507135042 | 16 | 209 | 1.6 | 3.2 | 0.00 | 0.18 | 0.13 | 93 | 1008.0 |
| 20260507134540 | 16 | 343 | 0.0 | 1.6 | 0.00 | 0.18 | 0.13 | 95 | 1008.1 |
| 20260507134038 | 15 | 343 | 0.0 | 1.6 | 0.00 | 0.18 | 0.13 | 94 | 1008.0 |
| 20260507133538 | 15 | 343 | 0.0 | 3.2 | 0.00 | 0.18 | 0.13 | 94 | 1008.3 |
| 20260507133055 | 15 | 343 | 1.6 | 3.2 | 0.00 | 0.18 | 0.13 | 93 | 1008.3 |
| 20260507132539 | 15 | 351 | 0.0 | 3.2 | 0.00 | 0.18 | 0.13 | 93 | 1008.3 |
| 20260507132038 | 15 | 120 | 0.0 | 1.6 | 0.00 | 0.18 | 0.13 | 94 | 1008.2 |
| 20260507131548 | 15 | 120 | 0.0 | 0.0 | 0.00 | 0.18 | 0.13 | 95 | 1008.1 |
| 20260507131036 | 15 | 120 | 0.0 | 1.6 | 0.00 | 0.18 | 0.13 | 95 | 1008.4 |
| 20260507130535 | 15 | 120 | 0.0 | 1.6 | 0.00 | 0.18 | 0.13 | 96 | 1008.4 |
| 20260507130042 | 15 | 120 | 0.0 | 1.6 | 0.00 | 0.18 | 0.13 | 96 | 1008.3 |
| 20260507125534 | 15 | 120 | 0.0 | 1.6 | 0.00 | 0.18 | 0.13 | 96 | 1008.3 |
| 20260507125032 | 14 | 120 | 0.0 | 1.6 | 0.00 | 0.18 | 0.13 | 96 | 1008.3 |
| 20260507124533 | 14 | 120 | 0.0 | 1.6 | 0.00 | 0.18 | 0.13 | 96 | 1008.7 |
| 20260507124029 | 14 | 120 | 0.0 | 1.6 | 0.00 | 0.18 | 0.13 | 96 | 1008.6 |
| 20260507123529 | 13 | 120 | 0.0 | 1.6 | 0.00 | 0.18 | 0.13 | 96 | 1008.6 |
| 20260507123031 | 13 | 120 | 0.0 | 1.6 | 0.00 | 0.18 | 0.13 | 96 | 1008.5 |
| 20260507122529 | 13 | 120 | 0.0 | 1.6 | 0.00 | 0.18 | 0.13 | 96 | 1008.9 |
| 20260507122030 | 13 | 120 | 0.0 | 1.6 | 0.00 | 0.18 | 0.13 | 96 | 1009.0 |
| 20260507121529 | 13 | 120 | 0.0 | 1.6 | 0.00 | 0.18 | 0.13 | 96 | 1009.2 |
| 20260507121028 | 13 | 120 | 0.0 | 1.6 | 0.00 | 0.18 | 0.13 | 96 | 1009.2 |
| 20260507120528 | 13 | 120 | 0.0 | 0.0 | 0.00 | 0.18 | 0.13 | 96 | 1009.2 |
| 20260507120028 | 13 | 120 | 0.0 | 0.0 | 0.00 | 0.18 | 0.13 | 96 | 1009.3 |
| 20260507115528 | 13 | 120 | 0.0 | 0.0 | 0.00 | 0.18 | 0.13 | 95 | 1009.4 |
| 20260507115031 | 13 | 120 | 0.0 | 0.0 | 0.03 | 0.18 | 0.13 | 95 | 1009.4 |
| 20260507114527 | 13 | 120 | 0.0 | 0.0 | 0.03 | 0.18 | 0.13 | 95 | 1009.4 |
| 20260507114026 | 13 | 120 | 0.0 | 0.0 | 0.03 | 0.18 | 0.13 | 95 | 1009.4 |
| 20260507113527 | 13 | 120 | 0.0 | 0.0 | 0.03 | 0.18 | 0.13 | 95 | 1009.3 |
| 20260507113026 | 13 | 120 | 0.0 | 0.0 | 0.03 | 0.18 | 0.13 | 95 | 1009.2 |
| 20260507112529 | 13 | 120 | 0.0 | 0.0 | 0.05 | 0.18 | 0.13 | 95 | 1009.2 |
| 20260507112026 | 13 | 120 | 0.0 | 1.6 | 0.08 | 0.18 | 0.13 | 95 | 1008.9 |
| 20260507111526 | 13 | 120 | 0.0 | 3.2 | 0.08 | 0.18 | 0.13 | 95 | 1009.0 |
| 20260507111025 | 13 | 120 | 0.0 | 3.2 | 0.08 | 0.18 | 0.13 | 95 | 1008.7 |
| 20260507110526 | 13 | 96 | 0.0 | 3.2 | 0.08 | 0.18 | 0.13 | 95 | 1008.7 |
| 20260507110026 | 13 | 96 | 0.0 | 3.2 | 0.08 | 0.18 | 0.13 | 95 | 1009.0 |
| 20260507105526 | 13 | 96 | 1.6 | 3.2 | 0.08 | 0.18 | 0.13 | 95 | 1008.6 |
| 20260507105028 | 13 | 356 | 0.0 | 1.6 | 0.05 | 0.15 | 0.10 | 95 | 1008.9 |
| 20260507104524 | 13 | 356 | 0.0 | 1.6 | 0.05 | 0.15 | 0.10 | 95 | 1008.9 |
| 20260507104024 | 13 | 356 | 0.0 | 1.6 | 0.05 | 0.15 | 0.10 | 95 | 1008.8 |
| 20260507103522 | 13 | 356 | 0.0 | 1.6 | 0.05 | 0.15 | 0.10 | 95 | 1008.6 |
| 20260507103023 | 13 | 356 | 0.0 | 4.8 | 0.05 | 0.15 | 0.10 | 95 | 1008.4 |
| 20260507102522 | 13 | 356 | 1.6 | 4.8 | 0.03 | 0.13 | 0.08 | 95 | 1008.5 |
| 20260507102023 | 13 | 228 | 0.0 | 3.2 | 0.00 | 0.10 | 0.05 | 95 | 1008.6 |
| 20260507101522 | 13 | 202 | 0.0 | 4.8 | 0.00 | 0.10 | 0.05 | 95 | 1008.7 |
| 20260507101023 | 13 | 255 | 1.6 | 3.2 | 0.00 | 0.10 | 0.05 | 95 | 1008.9 |
| 20260507100522 | 13 | 134 | 0.0 | 1.6 | 0.00 | 0.10 | 0.05 | 95 | 1008.6 |
| 20260507100022 | 13 | 134 | 0.0 | 1.6 | 0.00 | 0.10 | 0.05 | 95 | 1008.5 |
| 20260507095522 | 13 | 245 | 0.0 | 3.2 | 0.00 | 0.10 | 0.05 | 95 | 1008.6 |
| 20260507095022 | 13 | 245 | 0.0 | 3.2 | 0.00 | 0.10 | 0.05 | 95 | 1008.7 |
| 20260507094521 | 13 | 346 | 0.0 | 1.6 | 0.00 | 0.10 | 0.05 | 95 | 1008.7 |
| 20260507094021 | 13 | 346 | 0.0 | 1.6 | 0.00 | 0.10 | 0.05 | 95 | 1008.8 |
| 20260507093521 | 13 | 346 | 0.0 | 1.6 | 0.00 | 0.10 | 0.05 | 95 | 1008.7 |
| 20260507093025 | 13 | 346 | 0.0 | 1.6 | 0.00 | 0.10 | 0.05 | 95 | 1008.8 |
| 20260507092521 | 13 | 346 | 0.0 | 1.6 | 0.00 | 0.10 | 0.05 | 95 | 1008.7 |
| 20260507092020 | 13 | 346 | 0.0 | 1.6 | 0.00 | 0.10 | 0.05 | 95 | 1008.6 |
| 20260507091529 | 13 | 346 | 0.0 | 1.6 | 0.00 | 0.10 | 0.05 | 95 | 1008.6 |
| 20260507091021 | 13 | 346 | 0.0 | 0.0 | 0.00 | 0.10 | 0.05 | 95 | 1008.7 |
| 20260507090523 | 13 | 346 | 0.0 | 0.0 | 0.00 | 0.10 | 0.05 | 95 | 1008.7 |
| 20260507090023 | 13 | 346 | 0.0 | 0.0 | 0.00 | 0.10 | 0.05 | 95 | 1008.6 |
| 20260507085519 | 13 | 346 | 0.0 | 1.6 | 0.00 | 0.10 | 0.05 | 95 | 1008.6 |
| 20260507085018 | 13 | 346 | 0.0 | 3.2 | 0.00 | 0.10 | 0.05 | 95 | 1008.5 |
| 20260507084517 | 13 | 346 | 1.6 | 3.2 | 0.00 | 0.10 | 0.05 | 95 | 1008.4 |
| 20260507084017 | 13 | 346 | 1.6 | 3.2 | 0.00 | 0.10 | 0.05 | 95 | 1008.6 |
| 20260507083516 | 13 | 346 | 1.6 | 3.2 | 0.00 | 0.10 | 0.05 | 95 | 1008.6 |
| 20260507083016 | 13 | 346 | 0.0 | 1.6 | 0.00 | 0.10 | 0.05 | 95 | 1008.7 |
| 20260507082516 | 13 | 346 | 0.0 | 1.6 | 0.00 | 0.10 | 0.05 | 95 | 1008.7 |
| 20260507082015 | 13 | 346 | 0.0 | 1.6 | 0.00 | 0.10 | 0.05 | 95 | 1008.9 |
| 20260507081516 | 13 | 346 | 0.0 | 1.6 | 0.00 | 0.10 | 0.05 | 95 | 1008.9 |
| 20260507081015 | 13 | 346 | 0.0 | 1.6 | 0.00 | 0.10 | 0.05 | 95 | 1009.0 |
| 20260507080515 | 13 | 346 | 0.0 | 1.6 | 0.00 | 0.10 | 0.05 | 95 | 1009.1 |
| 20260507080014 | 13 | 346 | 0.0 | 1.6 | 0.05 | 0.10 | 0.05 | 95 | 1009.3 |
| 20260507075517 | 13 | 346 | 0.0 | 4.8 | 0.05 | 0.10 | 0.05 | 95 | 1009.3 |
| 20260507075017 | 13 | 346 | 1.6 | 4.8 | 0.05 | 0.10 | 0.05 | 95 | 1009.3 |
| 20260507074514 | 13 | 245 | 0.0 | 3.2 | 0.05 | 0.10 | 0.05 | 95 | 1009.3 |
| 20260507074012 | 13 | 358 | 0.0 | 1.6 | 0.05 | 0.10 | 0.05 | 95 | 1009.0 |
| 20260507073513 | 13 | 358 | 0.0 | 4.8 | 0.05 | 0.10 | 0.05 | 95 | 1008.8 |
| 20260507073012 | 13 | 358 | 1.6 | 8.0 | 0.05 | 0.10 | 0.05 | 95 | 1008.6 |
| 20260507072514 | 13 | 335 | 3.2 | 6.4 | 0.05 | 0.10 | 0.05 | 95 | 1009.0 |
| 20260507072010 | 13 | 174 | 0.0 | 1.6 | 0.05 | 0.10 | 0.05 | 95 | 1008.8 |
| 20260507071511 | 13 | 174 | 0.0 | 1.6 | 0.05 | 0.10 | 0.05 | 95 | 1008.9 |
| 20260507071012 | 13 | 174 | 0.0 | 0.0 | 0.05 | 0.10 | 0.05 | 94 | 1009.0 |
| 20260507070512 | 13 | 174 | 0.0 | 3.2 | 0.05 | 0.10 | 0.05 | 94 | 1008.9 |
| 20260507070013 | 14 | 174 | 0.0 | 8.0 | 0.00 | 0.05 | 0.00 | 94 | 1008.9 |
| 20260507065509 | 13 | 178 | 1.6 | 8.0 | 0.00 | 0.05 | 0.00 | 95 | 1009.3 |
| 20260507065009 | 13 | 224 | 1.6 | 6.4 | 0.00 | 0.05 | 0.00 | 95 | 1009.4 |
| 20260507064509 | 13 | 143 | 1.6 | 4.8 | 0.00 | 0.05 | 0.00 | 95 | 1009.3 |
| 20260507064008 | 13 | 163 | 0.0 | 4.8 | 0.00 | 0.05 | 0.00 | 94 | 1009.2 |
| 20260507063509 | 13 | 149 | 0.0 | 3.2 | 0.00 | 0.05 | 0.00 | 94 | 1009.3 |
| 20260507063008 | 13 | 207 | 0.0 | 1.6 | 0.00 | 0.05 | 0.00 | 94 | 1009.4 |
| 20260507062507 | 13 | 196 | 0.0 | 6.4 | 0.00 | 0.05 | 0.00 | 95 | 1009.5 |
| 20260507062007 | 13 | 204 | 3.2 | 9.7 | 0.00 | 0.05 | 0.00 | 95 | 1009.6 |
| 20260507061507 | 13 | 174 | 3.2 | 9.7 | 0.00 | 0.05 | 0.00 | 95 | 1009.4 |
| 20260507061006 | 13 | 162 | 1.6 | 9.7 | 0.00 | 0.05 | 0.00 | 95 | 1009.5 |
| 20260507060506 | 13 | 158 | 3.2 | 9.7 | 0.00 | 0.05 | 0.00 | 95 | 1009.7 |
| 20260507060005 | 13 | 110 | 3.2 | 6.4 | 0.00 | 0.05 | 0.00 | 95 | 1009.8 |
| 20260507055504 | 13 | 158 | 1.6 | 6.4 | 0.00 | 0.05 | 0.00 | 95 | 1009.9 |
| 20260507055005 | 13 | 143 | 1.6 | 4.8 | 0.00 | 0.05 | 0.00 | 95 | 1009.9 |
| 20260507054511 | 13 | 174 | 3.2 | 6.4 | 0.00 | 0.05 | 0.00 | 94 | 1010.0 |
| 20260507054003 | 13 | 181 | 1.6 | 6.4 | 0.00 | 0.05 | 0.00 | 94 | 1010.2 |
| 20260507053503 | 13 | 165 | 1.6 | 4.8 | 0.00 | 0.05 | 0.00 | 94 | 1010.0 |
| 20260507053001 | 13 | 148 | 1.6 | 4.8 | 0.00 | 0.05 | 0.00 | 94 | 1010.2 |
| 20260507052502 | 13 | 148 | 1.6 | 4.8 | 0.00 | 0.05 | 0.00 | 94 | 1010.5 |
| 20260507052002 | 13 | 203 | 0.0 | 3.2 | 0.00 | 0.05 | 0.00 | 94 | 1010.5 |
| 20260507051501 | 13 | 203 | 0.0 | 4.8 | 0.00 | 0.05 | 0.00 | 94 | 1010.4 |
| 20260507051101 | 13 | 171 | 1.6 | 4.8 | 0.00 | 0.05 | 0.00 | 94 | 1010.4 |
| 20260507050600 | 13 | 107 | 0.0 | 3.2 | 0.00 | 0.05 | 0.00 | 94 | 1010.3 |
| 20260507050100 | 13 | 107 | 0.0 | 3.2 | 0.00 | 0.05 | 0.00 | 94 | 1010.3 |
| 20260507045559 | 13 | 169 | 1.6 | 3.2 | 0.00 | 0.05 | 0.00 | 93 | 1010.3 |
| 20260507045057 | 13 | 146 | 1.6 | 3.2 | 0.00 | 0.05 | 0.00 | 93 | 1010.9 |
| 20260507044558 | 14 | 269 | 0.0 | 3.2 | 0.00 | 0.05 | 0.00 | 93 | 1011.4 |
| 20260507044057 | 14 | 221 | 0.0 | 4.8 | 0.00 | 0.05 | 0.00 | 93 | 1011.6 |
| 20260507043556 | 14 | 221 | 0.0 | 4.8 | 0.00 | 0.05 | 0.00 | 93 | 1011.4 |
| 20260507043056 | 14 | 238 | 0.0 | 4.8 | 0.00 | 0.05 | 0.00 | 93 | 1011.2 |
| 20260507042556 | 14 | 214 | 0.0 | 9.7 | 0.00 | 0.05 | 0.00 | 93 | 1011.4 |
| 20260507042054 | 13 | 201 | 1.6 | 9.7 | 0.00 | 0.05 | 0.00 | 94 | 1011.8 |
| 20260507041554 | 13 | 248 | 3.2 | 8.0 | 0.00 | 0.05 | 0.00 | 94 | 1011.6 |
| 20260507041052 | 13 | 144 | 0.0 | 3.2 | 0.00 | 0.05 | 0.00 | 94 | 1011.3 |
| 20260507040551 | 13 | 232 | 0.0 | 1.6 | 0.00 | 0.05 | 0.00 | 94 | 1011.3 |
| 20260507040054 | 13 | 232 | 0.0 | 1.6 | 0.00 | 0.05 | 0.00 | 94 | 1011.3 |
| 20260507035549 | 13 | 134 | 0.0 | 1.6 | 0.00 | 0.05 | 0.05 | 94 | 1011.3 |
| 20260507035150 | 13 | 134 | 0.0 | 1.6 | 0.00 | 0.05 | 0.05 | 94 | 1011.3 |
| 20260507034554 | 13 | 134 | 0.0 | 4.8 | 0.00 | 0.05 | 0.05 | 94 | 1011.1 |
| 20260507034048 | 13 | 134 | 0.0 | 4.8 | 0.00 | 0.05 | 0.05 | 94 | 1010.8 |
| 20260507033548 | 13 | 158 | 1.6 | 4.8 | 0.00 | 0.05 | 0.05 | 94 | 1011.1 |
| 20260507033052 | 13 | 189 | 0.0 | 3.2 | 0.00 | 0.05 | 0.05 | 93 | 1011.0 |
| 20260507032549 | 14 | 203 | 0.0 | 3.2 | 0.03 | 0.05 | 0.05 | 93 | 1010.9 |
| 20260507032047 | 14 | 208 | 0.0 | 3.2 | 0.03 | 0.05 | 0.05 | 93 | 1010.6 |
| 20260507031548 | 14 | 237 | 0.0 | 3.2 | 0.03 | 0.05 | 0.05 | 93 | 1010.3 |
| 20260507031048 | 14 | 237 | 0.0 | 3.2 | 0.03 | 0.05 | 0.05 | 93 | 1010.3 |
| 20260507030546 | 14 | 237 | 0.0 | 1.6 | 0.03 | 0.05 | 0.05 | 92 | 1010.2 |
| 20260507030047 | 14 | 236 | 0.0 | 1.6 | 0.05 | 0.05 | 0.05 | 92 | 1010.2 |
| 20260507025546 | 14 | 237 | 0.0 | 3.2 | 0.05 | 0.05 | 0.05 | 92 | 1010.2 |
| 20260507025046 | 14 | 214 | 0.0 | 3.2 | 0.05 | 0.05 | 0.05 | 92 | 1010.6 |
| 20260507024555 | 14 | 228 | 0.0 | 4.8 | 0.05 | 0.05 | 0.05 | 91 | 1010.3 |
| 20260507024046 | 14 | 227 | 0.0 | 4.8 | 0.05 | 0.05 | 0.05 | 91 | 1010.4 |
| 20260507023548 | 15 | 138 | 0.0 | 8.0 | 0.05 | 0.05 | 0.05 | 91 | 1010.1 |
| 20260507023049 | 15 | 94 | 3.2 | 9.7 | 0.05 | 0.05 | 0.05 | 89 | 1010.5 |
| 20260507022546 | 15 | 328 | 1.6 | 12.9 | 0.03 | 0.03 | 0.03 | 89 | 1011.8 |
| 20260507022045 | 15 | 247 | 3.2 | 12.9 | 0.03 | 0.03 | 0.03 | 89 | 1011.8 |
| 20260507021645 | 15 | 201 | 0.0 | 12.9 | 0.03 | 0.03 | 0.03 | 89 | 1011.7 |
| 20260507021044 | 15 | 207 | 3.2 | 16.1 | 0.03 | 0.03 | 0.03 | 88 | 1011.6 |
| 20260507020545 | 15 | 267 | 6.4 | 22.5 | 0.03 | 0.03 | 0.03 | 88 | 1011.6 |
| 20260507020104 | 15 | 250 | 4.8 | 22.5 | 0.00 | 0.00 | 0.00 | 87 | 1011.7 |
| 20260507015543 | 15 | 200 | 1.6 | 22.5 | 0.00 | 0.00 | 0.00 | 87 | 1011.8 |
| 20260507015043 | 15 | 305 | 8.0 | 22.5 | 0.00 | 0.00 | 0.00 | 86 | 1011.7 |
| 20260507014546 | 15 | 208 | 1.6 | 12.9 | 0.00 | 0.00 | 0.00 | 86 | 1011.6 |
| 20260507014042 | 15 | 202 | 4.8 | 16.1 | 0.00 | 0.00 | 0.00 | 86 | 1011.4 |